Other Public Products
Issued by NWS Grand Forks, ND

Home | Current Version | Previous Version | Graphics & Text | Print | Product List | Glossary On
Versions: 1 2 3 4 5 6 7 8 9 10 11 12 13 14 15 16 17 18 19 20 21 22 23 24 25 26 27 28 29 30 31 32 33 34 35 36 37 38 39 40 41 42 43 44 45 46 47 48 49 50
192
FPUS83 KFGF 101831
OPUFGF
PRAIRIE TO PINES WEATHER ROUNDUP
NATIONAL WEATHER SERVICE EASTERN NORTH DAKOTA/GRAND FORKS ND
1200 PM CST SUN DEC 10 2017

 **SATELLITE DATA USED TO AUGMENT SKY COVER AT AUTOMATED STATIONS**
 *****  WEATHER ACROSS EASTERN NORTH DAKOTA  *****

CITY           SKY/WX    TMP DP  RH WIND       PRES   REMARKS
GRAND FORKS    PTSUNNY   25  19  80 NW3       30.05F
6HR MIN TEMP:  15; 6HR MAX TEMP:  25;

GRND FORKS AFB MOSUNNY   25  18  74 CALM      30.05S
GRND FORKS NWS NOT AVBL
BUXTON           N/A     27  23  84 CALM        N/A
DEVILS LAKE    CLOUDY    29  25  85 S3        30.00F
6HR MIN TEMP:  17; 6HR MAX TEMP:  29;

FARGO          FAIR      26  20  77 N6        30.06F WCI  19
6HR MIN TEMP:  16; 6HR MAX TEMP:  26;

WAHPETON ARPT    N/A     28  21  74 NW7       30.06S WCI  21
$$

 *****  WEATHER ACROSS CENTRAL AND WESTERN NORTH DAKOTA  *****

CITY           SKY/WX    TMP DP  RH WIND       PRES   REMARKS
JAMESTOWN      FAIR      34  27  75 NW6       30.00F
6HR MIN TEMP:  26; 6HR MAX TEMP:  34;

BISMARCK       FAIR      44  25  47 W9        30.06F
6HR MIN TEMP:  27; 6HR MAX TEMP:  44;

MINOT          FAIR      42  24  49 W10       30.00F
6HR MIN TEMP:  31; 6HR MAX TEMP:  42;

MINOT AFB      PTSUNNY   42  25  51 NW16      29.99S
6HR MIN TEMP:  28; 6HR MAX TEMP:  42;

GARRISON         N/A     40  23  50 NW12      30.03S
6HR MIN TEMP:  30; 6HR MAX TEMP:  40;

WILLISTON      FAIR      41  20  43 W13       30.07F
6HR MIN TEMP:  32; 6HR MAX TEMP:  41;

DICKINSON      FAIR      44  21  40 W21       30.07S
6HR MIN TEMP:  31; 6HR MAX TEMP:  44;

HETTINGER      FAIR      50  14  23 W24G30    30.13F
6HR MIN TEMP:  35; 6HR MAX TEMP:  50;

$$

 *****  OTHER OBSERVATIONS NORTHEAST NORTH DAKOTA  *****

CITY           SKY/WX    TMP DP  RH WIND       PRES   REMARKS
WALHALLA       FAIR      25  25 100 CALM      30.03F
LANGDON        NOT AVBL
CAVALIER       MOCLDY    23  19  86 CALM      30.03F
GRAFTON        NOT AVBL
CANDO          CLOUDY    34  28  80 CALM      30.00S
FORT TOTTEN      N/A     31  25  80 SW2       29.95S
ROLLA          CLOUDY    36  27  69 CALM      29.97S
RUGBY          NOT AVBL
 ***** THE ABOVE OBSERVATIONS ARE NON NWS ARE NOT QUALITY
        CONTROLLED AND MAY MIS-REPORT RAIN FOR SNOW...
$$

 *****  OTHER OBSERVATIONS SOUTHEAST NORTH DAKOTA *****

CITY           SKY/WX    TMP DP  RH WIND       PRES   REMARKS
COOPERSTOWN    FAIR      28  23  80 CALM      30.02S
VALLEY CITY    NOT AVBL
OAKES            N/A     36  28  75 NW5       30.03F
GWINNER          N/A     34  25  69 CALM      30.04S
SHEYENNE NWR     N/A     29  21  71 CALM      29.95S
BUFFALO          N/A     28  19  71 CALM        N/A
WYNDMERE       NOT AVBL
 ***** THE ABOVE OBSERVATIONS ARE NON NWS ARE NOT QUALITY
       CONTROLLED AND MAY MIS-REPORT RAIN FOR SNOW...
$$

  *****  WEATHER ACROSS NORTHERN MINNESOTA  *****

CITY           SKY/WX    TMP DP  RH WIND       PRES   REMARKS
FLAG ISLAND    PTSUNNY   18  10  73 CALM      30.01R
WARROAD        PTSUNNY   19  14  79 CALM      30.02R
ROSEAU         FAIR      19  16  86 CALM      30.02R
HALLOCK        CLOUDY    23  19  86 CALM      30.04F
THF RVR FALLS  CLOUDY    22  18  85 CALM      30.03
6HR MIN TEMP:  19; 6HR MAX TEMP:  22;

HALSTAD        NOT AVBL
FOSSTON        CLOUDY    21  16  79 CALM      30.01F
BAUDETTE       CLOUDY    17  13  84 CALM      29.99F
6HR MIN TEMP:  16; 6HR MAX TEMP:  17; 6HR PCP: TRACE;

WASKISH        CLOUDY    19  14  79 W5        30.00S WCI  13
CROOKSTON      CLOUDY    21  18  86 NW5       30.06R WCI  15
$$
  *****  WEATHER ACROSS CENTRAL AND WEST MINNESOTA  *****

CITY           SKY/WX    TMP DP  RH WIND       PRES   REMARKS
BEMIDJI        CLOUDY    20  16  84 NW3       29.99S
6HR MIN TEMP:  19; 6HR MAX TEMP:  21;

PARK RAPIDS    CLOUDY    24  18  77 NW6       29.98S WCI  17
6HR MIN TEMP:  22; 6HR MAX TEMP:  24;

WADENA         PTSUNNY   25  18  74 W8        30.00S WCI  16
DETROIT LAKES  CLOUDY    23  21  93 NW7       30.02F WCI  15
MOORHEAD       FAIR      25  18  74 CALM      30.06S
FERGUS FALLS   FAIR      25  19  80 NW9       30.07S WCI  15
ELBOW LAKE     MOCLDY    26  20  78 NW13      30.04R WCI  15
6HR MIN TEMP:  20; 6HR MAX TEMP:  26;

MORRIS MN      FAIR      30  21  69 NW16      30.04R WCI  19
STAPLES        CLOUDY    25  18  74 N5        30.00S WCI  19
WHEATON        NOT AVBL
$$
  *****  WEATHER ELSEWHERE ACROSS MINNESOTA  *****

CITY           SKY/WX    TMP DP  RH WIND       PRES   REMARKS
DULUTH         PTSUNNY   19  12  74 NW10      29.94F WCI   7
6HR MIN TEMP:  18; 6HR MAX TEMP:  20; 6HR PCP: TRACE;

INTRNTL FALLS  LGT SNOW  17  10  74 NW3       29.99R
6HR MIN TEMP:  14; 6HR MAX TEMP:  17; 6HR PCP: TRACE;

ELY            PTSUNNY   16   7  67 N5        29.94S WCI   9
CLOQUET        FLURRIES  21  12  68 N9        29.96S WCI  11
BRAINERD       PTSUNNY   26  16  65 NW6       29.99R WCI  19
6HR MIN TEMP:  24; 6HR MAX TEMP:  26;

HIBBING        CLOUDY    16  11  80 N8        29.96F WCI   5
6HR MIN TEMP:  16; 6HR MAX TEMP:  18; 6HR PCP: TRACE;

ALEXANDRIA     PTSUNNY   27  20  75 N7        30.01R WCI  19
6HR MIN TEMP:  24; 6HR MAX TEMP:  28;

SAINT CLOUD    PTSUNNY   28  21  75 NW12      30.01R WCI  18
6HR MIN TEMP:  25; 6HR MAX TEMP:  29;

MINNEAPOLIS    CLOUDY    28  22  78 NW10      30.00F WCI  19
6HR MIN TEMP:  24; 6HR MAX TEMP:  29;

$$

  *****  WEATHER ACROSS SOUTH DAKOTA  *****

CITY           SKY/WX    TMP DP  RH WIND       PRES   REMARKS
SIOUX FALLS    FAIR      39  29  67 NW13      30.07S
6HR MIN TEMP:  28; 6HR MAX TEMP:  39;

BROOKINGS      FAIR      36  27  69 NW12      30.04
WATERTOWN      FAIR      35  28  75 NW12      30.03S
6HR MIN TEMP:  27; 6HR MAX TEMP:  35;

HURON          FAIR      41  28  60 NW9       30.07F
6HR MIN TEMP:  23; 6HR MAX TEMP:  41;

SISSETON         N/A     34  25  69 NW5       30.04F
ABERDEEN       PTSUNNY   41  27  57 NW10      30.07S
6HR MIN TEMP:  27; 6HR MAX TEMP:  41;

MITCHELL       FAIR      43  29  57 NW9       30.10F
PIERRE         FAIR      51  18  27 NW21      30.10F
6HR MIN TEMP:  37; 6HR MAX TEMP:  51;

MOBRIDGE       FAIR      45  25  45 NW10      30.05F
RAPID CITY     FAIR      62   5  10 NW18      30.20F
6HR MIN TEMP:  40; 6HR MAX TEMP:  62;

$$

  *****  SOME WEATHER IN NEARBY STATES *****

CITY           SKY/WX    TMP DP  RH WIND       PRES   REMARKS
GLASGOW MT     FAIR      36  16  44 NW8       30.15F
6HR MIN TEMP:  22; 6HR MAX TEMP:  37;

GREAT FALLS MT FAIR      50   9  19 SW23      30.34R
6HR MIN TEMP:  40; 6HR MAX TEMP:  50;

CHEYENNE WY    FAIR      51  -3  10 W14       30.41F
6HR MIN TEMP:  29; 6HR MAX TEMP:  52;

SCOTTSBLUFF NE FAIR      51  11  20 NW13      30.35F
6HR MIN TEMP:  22; 6HR MAX TEMP:  51;

OMAHA NE       FAIR      49  26  41 NW15      30.10S
6HR MIN TEMP:  37; 6HR MAX TEMP:  49;

DES MOINES IA  PTSUNNY   43  24  47 NW14G25   30.02F
6HR MIN TEMP:  30; 6HR MAX TEMP:  43;

DAVENPORT IA   FAIR      36  23  59 NW15      29.96R
6HR MIN TEMP:  23; 6HR MAX TEMP:  36;

CHICAGO IL     PTSUNNY   32  19  58 W10G20    29.87F WCI  24
6HR MIN TEMP:  24; 6HR MAX TEMP:  33;

EAU CLAIRE WI  CLOUDY    25  18  74 NW10      29.96S WCI  15
6HR MIN TEMP:  16; 6HR MAX TEMP:  25;

LA CROSSE WI   CLOUDY    29  21  72 NW13      29.98R WCI  19
6HR MIN TEMP:  22; 6HR MAX TEMP:  30;

$$

  *****  SOME NATIONAL WEATHER *****

CITY           SKY/WX    TMP DP  RH WIND       PRES   REM



USA.gov is the U.S. government's official web portal to all federal, state and local government web resources and services.